PWLH4136E Weather Reports


time (UTC)temp
C
wind
direction
speed
KPH
gust
KPH
rain 1hr
cm
rain 24hr
cm
rain mn
cm
humidity
%
barometer
mb
20260506184527 16 96 1.6 14.5 0.00 0.00 0.00 78 1011.9
20260506183021 16 70 4.8 12.9 0.00 0.00 0.00 78 1011.8
20260506181627 16 141 6.4 16.1 0.00 0.00 0.00 77 1011.8
20260506180021 16 139 6.4 16.1 0.00 0.00 0.00 77 1011.7
20260506174518 16 133 4.8 19.3 0.00 0.00 0.00 77 1011.6
20260506173021 16 191 8.0 19.3 0.00 0.00 0.00 76 1011.3
20260506171523 16 120 8.0 19.3 0.00 0.00 0.00 78 1011.3
20260506170018 17 169 9.7 19.3 0.00 0.00 0.00 77 1011.3
20260506164517 17 169 6.4 20.9 0.00 0.00 0.00 75 1011.2
20260506163017 17 190 9.7 20.9 0.00 0.00 0.00 75 1011.0
20260506161516 17 147 11.3 17.7 0.00 0.00 0.00 75 1011.0
20260506160026 17 222 8.0 22.5 0.00 0.00 0.00 75 1010.9
20260506154517 17 174 8.0 22.5 0.00 0.00 0.00 74 1010.9
20260506153012 17 143 8.0 20.9 0.00 0.00 0.00 74 1010.9
20260506151511 17 184 11.3 22.5 0.00 0.00 0.00 72 1011.0
20260506150011 17 141 9.7 20.9 0.00 0.00 0.00 71 1011.0
20260506144510 17 156 12.9 20.9 0.00 0.00 0.00 70 1010.9
20260506143009 17 195 8.0 19.3 0.00 0.00 0.00 72 1011.1
20260506141508 17 193 8.0 22.5 0.00 0.00 0.00 73 1011.2
20260506140008 17 134 8.0 20.9 0.00 0.00 0.00 73 1011.4
20260506134507 17 153 9.7 19.3 0.00 0.00 0.00 73 1011.6
20260506133006 17 160 9.7 19.3 0.00 0.00 0.00 72 1011.7
20260506131511 17 166 6.4 17.7 0.00 0.00 0.00 71 1011.9
20260506130005 17 156 4.8 19.3 0.00 0.00 0.00 71 1012.0
20260506124503 17 195 8.0 16.1 0.00 0.00 0.00 71 1012.1
20260506123003 17 177 8.0 17.7 0.00 0.00 0.00 70 1012.1
20260506121502 17 153 4.8 17.7 0.00 0.00 0.00 73 1012.0
20260506120007 16 150 9.7 20.9 0.00 0.00 0.00 73 1011.9
20260506114500 17 160 9.7 19.3 0.00 0.00 0.00 73 1011.9
20260506113100 16 82 8.0 17.7 0.00 0.00 0.00 74 1012.0
20260506111601 16 137 6.4 16.1 0.00 0.00 0.00 72 1012.2
20260506110104 17 134 4.8 12.9 0.00 0.00 0.00 70 1012.3
20260506104559 17 166 8.0 16.1 0.00 0.00 0.00 70 1012.4
20260506103057 17 190 3.2 12.9 0.00 0.00 0.00 71 1012.4
20260506101556 17 202 6.4 14.5 0.00 0.00 0.00 70 1012.4
20260506100056 17 163 4.8 12.9 0.00 0.00 0.00 70 1012.5
20260506094621 17 264 3.2 14.5 0.00 0.00 0.00 71 1012.5
20260506093054 17 184 8.0 16.1 0.00 0.00 0.00 69 1012.4
20260506091554 17 157 9.7 16.1 0.00 0.00 0.00 68 1012.2
20260506090052 17 250 3.2 12.9 0.00 0.00 0.00 68 1012.2
20260506084551 17 190 3.2 9.7 0.00 0.00 0.00 70 1012.1
20260506083050 17 183 1.6 4.8 0.00 0.00 0.00 70 1012.1
20260506081547 17 174 1.6 6.4 0.00 0.00 0.00 70 1012.0
20260506080147 17 197 0.0 4.8 0.00 0.00 0.00 70 1011.9
20260506073043 16 200 1.6 6.4 0.00 0.00 0.00 70 1011.8
20260506071544 16 165 0.0 3.2 0.00 0.00 0.00 69 1011.6
20260506061529 12 338 0.0 3.2 0.00 0.00 0.00 82 1011.4
20260506044512 -17 0.0 0.0 0.00 0.00 0.00 1010.6
20260506043008 -17 0.0 0.0 0.00 0.00 0.00 1010.5
20260506041511 -17 0.0 0.0 0.00 0.00 0.00 1010.5
20260506040100 -17 0.0 0.0 0.00 0.00 0.00 1010.5
20260506034556 -17 0.0 0.0 0.00 0.00 0.00 1010.4
20260506033052 -17 0.0 0.0 0.00 0.00 0.00 1010.4
20260506031551 -17 0.0 0.0 0.00 0.00 0.00 1010.3
20260506030043 -17 0.0 0.0 0.00 0.00 0.00 1010.4
20260506024546 -17 0.0 0.0 0.00 0.00 0.00 1010.4
20260506023034 -17 0.0 0.0 0.00 0.00 0.00 1010.4
20260506021530 -17 0.0 0.0 0.00 0.00 0.00 1010.2
20260506020026 -17 0.0 0.0 0.00 0.00 0.00 1010.2
20260506014521 -17 0.0 0.0 0.00 0.00 0.00 1010.1
20260506013016 -17 0.0 0.0 0.00 0.00 0.00 1010.1
20260506011511 -17 0.0 0.0 0.00 0.00 0.00 1010.1
20260506010007 -17 0.0 0.0 0.00 0.00 0.00 1010.3
20260506004503 -17 0.0 0.0 0.00 0.00 0.00 1010.5
20260506003059 -17 0.0 0.0 0.00 0.00 0.00 1010.4
20260506001606 -17 0.0 0.0 0.00 0.00 0.00 1010.4
20260506000049 -17 0.0 0.0 0.00 0.00 0.00 1010.4
20260505234549 -17 0.0 0.0 0.00 0.00 0.00 1010.6
20260505233042 12 123 0.0 3.2 0.00 0.00 0.00 77 1010.8
20260505231550 13 8 0.0 8.0 0.00 0.00 0.00 77 1011.0
20260505230051 13 8 1.6 8.0 0.00 0.00 0.00 77 1011.0
20260505224537 12 309 0.0 1.6 0.00 0.00 0.00 78 1011.2
20260505223034 13 256 0.0 3.2 0.00 0.00 0.00 77 1010.9
20260505221531 13 134 1.6 11.3 0.00 0.00 0.00 73 1011.0
20260505220128 13 343 4.8 14.5 0.00 0.00 0.00 73 1011.1
20260505214528 13 350 12.9 24.1 0.00 0.00 0.00 73 1011.1
20260505213026 13 342 16.1 30.6 0.00 0.00 0.00 77 1010.9
20260505211525 13 357 0.0 12.9 0.00 0.00 0.00 85 1011.2
20260505210023 13 329 9.7 19.3 0.00 0.00 0.00 85 1011.2
20260505204519 13 49 17.7 25.7 0.00 0.00 0.00 84 1010.8
20260505203020 14 4 16.1 35.4 0.00 0.00 0.00 86 1010.7
20260505201515 15 43 12.9 19.3 0.00 0.00 0.00 92 1010.5
20260505200013 15 39 3.2 6.4 0.00 0.00 0.00 91 1010.3
20260505194512 15 337 0.0 4.8 0.00 0.00 0.00 91 1009.9
20260505193012 16 333 3.2 8.0 0.00 0.00 0.00 89 1009.5
20260505191511 16 169 0.0 1.6 0.00 0.00 0.00 88 1009.1
20260505190010 16 160 0.0 0.0 0.00 0.03 0.00 89 1009.4